Flag for Papua New Guinea Weather past 2 weeks in Lae, Papua New Guinea

Now
88 °F

Scattered clouds.


Feels Like: 98 °F
Forecast: 71 / 96 °F
Wind: 8 mph from Southeast

Location: Moresby

Current Time: Dec 23, 2014 at 10:33:42 AM

Latest Report: Dec 23, 2014 at 9:00 AM


Visibility: N/A

Pressure: 29.74 "Hg

Humidity: 66%

Dew point: 75 °F

Location of LaeLocation

Historic Weather in Lae — Graph

°F

Lae temperature yesterday

Maximum temperature yesterday: 91 °F (at 2:00 PM)
Minimum temperature yesterday: 75 °F (at 4:00 AM)
Average temperature yesterday: 83 °F

Past Weeks' High & Low Weather Summary

 TemperatureHumidityPressure
High93 °F (Dec 18, 1:00 PM)100% (Dec 9, 10:00 PM)29.86 "Hg (Dec 9, 10:00 PM)
Low73 °F (Dec 16, 5:00 AM)21% (Dec 14, 2:00 AM)29.65 "Hg (Dec 17, 4:00 PM)
Average83 °F77%29.76 "Hg
* Reported Dec 8 9:00 AM — Dec 23 9:00 AM, Lae, Weather by CustomWeather, © 2014

Note: Actual official high and low records may vary slightly from our data, if they occured in-between our weather recording intervals... More about our weather records

Advertising

Lae weather history for previous 24 hours

 ConditionsComfort  
Time TempWeatherWind HumidityBarometerVisibility
9:00 AM
Dec 23
88 °FScattered clouds.8 mph66%29.74 "HgN/A
8:00 AM84 °FPassing clouds.12 mph70%29.74 "HgN/A
7:00 AM81 °FBroken clouds.No wind84%29.74 "HgN/A
6:00 AM79 °FBroken clouds.No wind89%29.71 "HgN/A
5:00 AM81 °FPartly cloudy.No wind84%29.71 "HgN/A
3:00 AM81 °FPassing clouds.6 mph84%29.68 "HgN/A
2:00 AM81 °FPassing clouds.No wind84%29.71 "HgN/A
1:00 AM81 °FPassing clouds.No wind84%29.68 "HgN/A
12:00 AM82 °FPassing clouds.2 mph79%29.71 "HgN/A
11:00 PM
Dec 22
82 °FPassing clouds.3 mph79%29.74 "HgN/A
10:00 PM84 °FPassing clouds.14 mph74%29.74 "HgN/A
7:00 PM84 °FPartly cloudy.16 mph79%29.71 "HgN/A
6:00 PM86 °FScattered clouds.14 mph75%29.71 "HgN/A
5:00 PM86 °FScattered clouds.12 mph70%29.68 "HgN/A
4:00 PM88 °FScattered clouds.14 mph62%29.65 "HgN/A
3:00 PM90 °FScattered clouds.14 mph59%29.65 "HgN/A
2:00 PM91 °FScattered clouds.14 mph56%29.68 "HgN/A
1:00 PM90 °FScattered clouds.12 mph59%29.71 "HgN/A
12:00 PM88 °FScattered clouds.16 mph59%29.71 "HgN/A
11:00 AM86 °FPassing clouds.9 mph62%29.71 "HgN/A
10:00 AM88 °FPassing clouds.2 mph55%29.74 "HgN/A
Weather by CustomWeather, © 2014

See weather overviewHow to use our weather pages